Content
SEND FEEDBACK

Daily
Averages
Monthly
Summary
United States of America

SAGINAW, OREGON


Home > North America > United States > Oregon
Elevation: 206 meters     Latitude: 43 47N     Longitude: 123 04W

WEATHER
 
SELECT A DAY
Number of Records: 210,908;   Date Range: 1/1/95 - 9/16/14
 
SHARE

PRINT THIS DATA

[ ← Previous Day ]
WEATHER ALMANAC - 23 JANUARY, 2013
[ Next Day → ]
[ °F ]   °C
Weather ElementAverageHighLow
Temperature1.2 °C3 °C (3:21 pm)0 °C (12:54 am)
Dewpoint0.4 °C2.2 °C (4:54 pm)-1.1 °C (12:54 am)
Humidity94.6 %100 % (7:54 am)89 % (11:54 am)
Barometer1016.6 hPa1023 hPa (11:54 pm)1013.2 hPa (4:11 am)
Wind Speed3.4 km/h14.8 km/h (9:32 am)
Weather ElementAverage
Visibility6.8 km
Wind DirectionESE (104 °)

Weather ElementTotal
Precipitation8.38 mm
Heating Degree Days16.8 (Base 18.3)
Averaged from 45 records on 23 January, 2013
WEATHER CONDITIONS BREAKOUT
WIND DIRECTION BREAKOUT
WEATHER BY HOUR - 23 JANUARY, 2013
[ °F ]   °C
Local TimeTemperatureDewpointHumidityBarometerVisibilityWind DirectionWind SpeedGust SpeedPrecipitationEventsConditions
12:54 AM0 °C-1.1 °C92 %1015.2 hPa8 kmCalmPartly Cloudy
1:08 AM0 °C-1 °C93 %1014.6 hPa8 kmCalmMostly Cloudy
1:16 AM0 °C-1 °C93 %1014.6 hPa8 kmCalmScattered Clouds
1:54 AM0 °C-0.6 °C96 %1015.2 hPa8 kmCalmMostly Cloudy
2:13 AM0 °C-1 °C93 %1014.6 hPa6.4 kmCalmScattered Clouds
2:54 AM0 °C-0.6 °C96 %1014.6 hPa6.4 kmCalmScattered Clouds
3:31 AM0 °C-1 °C93 %1013.5 hPa6.4 kmCalmOvercast
3:54 AM0 °C-0.6 °C96 %1014.2 hPa6.4 kmNNW (340°)5.6 km/hOvercast
4:11 AM0 °C-1 °C93 %1013.2 hPa6.4 kmNorth (360°)7.4 km/hOvercast
4:49 AM0 °C-1 °C93 %1013.2 hPa6.4 kmNorth (350°)7.4 km/hOvercast
4:54 AM0 °C-0.6 °C96 %1013.5 hPa6.4 kmNorth (360°)5.6 km/hOvercast
5:40 AM0 °C-1 °C93 %1013.2 hPa8 kmNNE (20°)5.6 km/hOvercast
5:54 AM0 °C-0.6 °C96 %1013.5 hPa8 kmNE (40°)5.6 km/hOvercast
6:54 AM0 °C-0.6 °C96 %1013.5 hPa8 kmCalmOvercast
7:54 AM0 °C0 °C100 %1013.2 hPa4.8 kmWNW (290°)9.3 km/hOvercast
8:37 AM0 °C0 °C100 %1013.2 hPa4 kmCalmOvercast
8:54 AM0.6 °C0 °C96 %1013.9 hPa4 kmSouth (190°)7.4 km/hOvercast
9:19 AM1 °C1 °C100 %1013.9 hPa4 kmCalm0 mmRainLight Rain
9:32 AM1 °C0 °C93 %1013.2 hPa6.4 kmNW (320°)14.8 km/h0 mmRainLight Rain
9:54 AM1.1 °C0 °C92 %1014.2 hPa8 kmCalm0 mmRainLight Rain
10:10 AM1 °C0 °C93 %1014.2 hPa11.3 kmCalm0 mmOvercast
10:41 AM1 °C0 °C93 %1014.6 hPa11.3 kmCalm0 mmRainLight Rain
10:54 AM1.1 °C1 °C99 %1015.2 hPa9.7 kmWest (260°)7.4 km/h0 mmRainLight Rain
11:54 AM1.7 °C0 °C89 %1015.2 hPa8 kmCalm0.25 mmRainLight Rain
12:54 PM2.2 °C0.6 °C89 %1014.6 hPa9.7 kmSSE (150°)11.1 km/h1.27 mmRainLight Rain
1:33 PM2 °C1 °C93 %1014.2 hPa4.8 kmSSW (210°)5.6 km/h1.27 mmRainRain
1:54 PM2.2 °C1.1 °C93 %1014.9 hPa6.4 kmCalm2.29 mmRainLight Rain
2:54 PM2.2 °C1.1 °C93 %1015.9 hPa4.8 kmVariable5.6 km/h1.27 mmRainLight Rain
3:21 PM3 °C2 °C93 %1016.3 hPa6.4 kmWSW (240°)5.6 km/h0.51 mmRainLight Rain
3:54 PM2.8 °C1.7 °C93 %1016.6 hPa6.4 kmSouth (170°)5.6 km/h0.76 mmRainLight Rain
4:33 PM3 °C2 °C93 %1016.9 hPa8 kmCalm0.25 mmOvercast
4:54 PM2.8 °C2.2 °C96 %1017.6 hPa6.4 kmCalm0.25 mmOvercast
5:54 PM2.8 °C2.2 °C96 %1019 hPa6.4 kmCalm0 mmRainLight Rain
6:54 PM2.8 °C2.2 °C96 %1019.6 hPa8 kmCalm0.25 mmOvercast
7:21 PM3 °C2 °C93 %1020 hPa8 kmSW (220°)5.6 km/hOvercast
7:54 PM2.8 °C2.2 °C96 %1020.7 hPa8 kmSW (230°)5.6 km/hOvercast
8:18 PM2 °C2 °C100 %1020.7 hPa8 kmCalmMostly Cloudy
8:54 PM1.7 °C1.1 °C96 %1021.3 hPa8 kmSW (230°)5.6 km/hMostly Cloudy
9:20 PM2 °C1 °C93 %1021.3 hPa6.4 kmSSW (210°)5.6 km/hMostly Cloudy
9:54 PM2.2 °C1.7 °C97 %1022 hPa9.7 kmSouth (190°)9.3 km/hMostly Cloudy
10:54 PM1.7 °C1.1 °C96 %1022.7 hPa8 kmWSW (250°)5.6 km/hMostly Cloudy
11:32 PM1 °C0 °C93 %1022.7 hPa2.9 kmCalmClear
11:37 PM1 °C0 °C93 %1022.7 hPa1.9 kmCalmPartly Cloudy
11:41 PM1 °C0 °C93 %1022.7 hPa1.3 kmCalmMist
11:54 PM0.6 °C0 °C96 %1023 hPa0.8 kmNE (50°)5.6 km/hFogFog
Hourly data recorded from KEUG, located 0 kilometers away from Saginaw, Oregon







STORIES FROM OUR PARTNERS